Time,TemperatureF,DewpointF,PressureIn,WindDirection,WindDirectionDegrees,WindSpeedMPH,WindSpeedGustMPH,Humidity,HourlyPrecipIn,Conditions,Clouds,dailyrainin,SoftwareType,DateUTC
2013-02-10 00:00:00,61.6,56.1,30.09,NE,41,7.0,7.0,82,0.00,,---,0.01,VWS V14.01,2013-02-10 05:00:00,
2013-02-10 00:05:00,61.6,56.1,30.09,NE,44,2.0,7.0,82,0.00,,---,0.00,VWS V14.01,2013-02-10 05:05:00,
2013-02-10 00:10:00,61.5,56.0,30.09,NE,47,4.0,7.0,82,0.00,,---,0.00,VWS V14.01,2013-02-10 05:10:00,
2013-02-10 00:15:00,61.5,56.0,30.09,East,79,4.0,7.0,82,0.00,,---,0.00,VWS V14.01,2013-02-10 05:15:00,
2013-02-10 00:20:00,61.5,56.0,30.09,NE,43,1.0,7.0,82,0.00,,---,0.00,VWS V14.01,2013-02-10 05:20:00,
2013-02-10 00:25:00,61.5,56.0,30.09,NE,53,2.0,7.0,82,0.00,,---,0.00,VWS V14.01,2013-02-10 05:25:00,
2013-02-10 00:30:00,61.5,56.0,30.09,NE,44,1.0,8.0,82,0.00,,---,0.00,VWS V14.01,2013-02-10 05:30:00,
2013-02-10 00:35:00,61.3,56.1,30.09,NE,44,5.0,8.0,83,0.00,,---,0.00,VWS V14.01,2013-02-10 05:35:00,
2013-02-10 00:40:00,61.3,56.1,30.09,NE,44,4.0,8.0,83,0.00,,---,0.00,VWS V14.01,2013-02-10 05:40:00,
2013-02-10 00:45:00,61.2,56.0,30.09,NE,44,4.0,8.0,83,0.00,,---,0.00,VWS V14.01,2013-02-10 05:45:00,
2013-02-10 00:46:00,61.2,56.0,30.09,NE,44,3.0,8.0,83,0.00,,---,0.00,VWS V14.01,2013-02-10 05:46:00,
2013-02-10 00:50:00,61.2,56.3,30.09,ENE,60,4.0,8.0,84,0.00,,---,0.00,VWS V14.01,2013-02-10 05:50:00,
2013-02-10 00:51:00,61.2,56.3,30.09,ENE,60,1.0,8.0,84,0.00,,---,0.00,VWS V14.01,2013-02-10 05:51:00,
2013-02-10 00:55:00,61.0,56.1,30.09,ENE,63,4.0,8.0,84,0.00,,---,0.00,VWS V14.01,2013-02-10 05:55:00,
2013-02-10 00:56:00,61.0,56.1,30.09,NE,46,4.0,8.0,84,0.00,,---,0.00,VWS V14.01,2013-02-10 05:56:00,
2013-02-10 01:00:00,61.0,56.1,30.09,ENE,61,7.0,8.0,84,0.00,,---,0.00,VWS V14.01,2013-02-10 06:00:00,
2013-02-10 01:01:00,61.0,56.1,30.09,ENE,61,5.0,8.0,84,0.00,,---,0.00,VWS V14.01,2013-02-10 06:01:00,
2013-02-10 01:05:00,61.0,56.1,30.09,NE,47,7.0,7.0,84,0.00,,---,0.00,VWS V14.01,2013-02-10 06:05:00,
2013-02-10 01:06:00,61.0,56.1,30.09,ENE,61,1.0,7.0,84,0.00,,---,0.00,VWS V14.01,2013-02-10 06:06:00,
2013-02-10 01:10:00,61.0,56.1,30.09,NE,51,2.0,7.0,84,0.00,,---,0.00,VWS V14.01,2013-02-10 06:10:00,
2013-02-10 01:11:00,61.0,56.1,30.09,NE,51,5.0,7.0,84,0.00,,---,0.00,VWS V14.01,2013-02-10 06:11:00,
2013-02-10 01:15:00,61.0,56.5,30.09,NE,56,5.0,7.0,85,0.00,,---,0.00,VWS V14.01,2013-02-10 06:15:00,
2013-02-10 01:16:00,61.0,56.5,30.09,ENE,68,6.0,7.0,85,0.00,,---,0.00,VWS V14.01,2013-02-10 06:16:00,
2013-02-10 01:20:00,60.9,56.4,30.08,North,8,0.0,8.0,85,0.00,,---,0.00,VWS V14.01,2013-02-10 06:20:00,
2013-02-10 01:21:00,60.9,56.4,30.08,North,8,1.0,8.0,85,0.00,,---,0.00,VWS V14.01,2013-02-10 06:21:00,
2013-02-10 01:25:00,60.9,56.4,30.08,ENE,61,0.0,8.0,85,0.00,,---,0.00,VWS V14.01,2013-02-10 06:25:00,
2013-02-10 01:26:00,60.9,56.4,30.08,ENE,61,0.0,8.0,85,0.00,,---,0.00,VWS V14.01,2013-02-10 06:26:00,
2013-02-10 01:30:00,60.9,56.4,30.08,NE,55,3.0,8.0,85,0.00,,---,0.00,VWS V14.01,2013-02-10 06:30:00,
2013-02-10 01:31:00,60.9,56.4,30.08,NE,56,5.0,8.0,85,0.00,,---,0.00,VWS V14.01,2013-02-10 06:31:00,
2013-02-10 01:35:00,60.7,56.2,30.08,NE,55,0.0,8.0,85,0.00,,---,0.00,VWS V14.01,2013-02-10 06:35:00,
2013-02-10 01:36:00,60.7,56.2,30.08,NE,53,5.0,8.0,85,0.00,,---,0.00,VWS V14.01,2013-02-10 06:36:00,
2013-02-10 01:40:00,60.7,56.2,30.08,NE,53,0.0,8.0,85,0.00,,---,0.00,VWS V14.01,2013-02-10 06:40:00,
2013-02-10 01:41:00,60.7,56.2,30.08,NE,53,0.0,8.0,85,0.00,,---,0.00,VWS V14.01,2013-02-10 06:41:00,
2013-02-10 01:45:00,60.7,56.5,30.08,NE,55,6.0,9.0,86,0.00,,---,0.00,VWS V14.01,2013-02-10 06:45:00,
2013-02-10 01:46:00,60.7,56.5,30.08,ENE,71,5.0,9.0,86,0.00,,---,0.00,VWS V14.01,2013-02-10 06:46:00,
2013-02-10 01:50:00,60.7,56.5,30.08,ENE,78,2.0,9.0,86,0.00,,---,0.00,VWS V14.01,2013-02-10 06:50:00,
2013-02-10 01:51:00,60.7,56.5,30.08,ENE,78,0.0,9.0,86,0.00,,---,0.00,VWS V14.01,2013-02-10 06:51:00,
2013-02-10 01:55:00,60.7,56.5,30.08,ENE,61,5.0,9.0,86,0.00,,---,0.00,VWS V14.01,2013-02-10 06:55:00,
2013-02-10 01:56:00,60.7,56.5,30.08,ENE,61,4.0,9.0,86,0.00,,---,0.00,VWS V14.01,2013-02-10 06:56:00,
2013-02-10 02:00:00,60.7,56.5,30.08,NE,41,5.0,9.0,86,0.00,,---,0.00,VWS V14.01,2013-02-10 07:00:00,
2013-02-10 02:01:00,60.7,56.5,30.08,NE,41,0.0,9.0,86,0.00,,---,0.00,VWS V14.01,2013-02-10 07:01:00,
2013-02-10 02:05:00,60.7,56.5,30.08,ENE,63,0.0,6.0,86,0.00,,---,0.00,VWS V14.01,2013-02-10 07:05:00,
2013-02-10 02:06:00,60.7,56.5,30.08,ENE,63,0.0,6.0,86,0.00,,---,0.00,VWS V14.01,2013-02-10 07:06:00,
2013-02-10 02:10:00,60.7,56.8,30.08,ENE,63,2.0,6.0,87,0.00,,---,0.00,VWS V14.01,2013-02-10 07:10:00,
2013-02-10 02:11:00,60.7,56.8,30.08,ENE,63,0.0,6.0,87,0.00,,---,0.00,VWS V14.01,2013-02-10 07:11:00,
2013-02-10 02:15:00,60.7,56.8,30.08,ENE,63,4.0,6.0,87,0.00,,---,0.00,VWS V14.01,2013-02-10 07:15:00,
2013-02-10 02:16:00,60.7,56.8,30.08,ENE,63,0.0,6.0,87,0.00,,---,0.00,VWS V14.01,2013-02-10 07:16:00,
2013-02-10 02:21:00,60.7,56.8,30.08,ENE,62,4.0,7.0,87,0.00,,---,0.00,VWS V14.01,2013-02-10 07:21:00,
2013-02-10 02:26:00,60.5,56.6,30.08,NE,52,4.0,9.0,87,0.00,,---,0.00,VWS V14.01,2013-02-10 07:26:00,
2013-02-10 02:27:00,60.5,56.6,30.08,NE,52,0.0,9.0,87,0.00,,---,0.00,VWS V14.01,2013-02-10 07:27:00,
2013-02-10 02:31:00,60.5,56.9,30.08,NE,53,1.0,9.0,88,0.00,,---,0.00,VWS V14.01,2013-02-10 07:31:00,
2013-02-10 02:32:00,60.5,56.9,30.08,NE,53,0.0,9.0,88,0.00,,---,0.00,VWS V14.01,2013-02-10 07:32:00,
2013-02-10 02:36:00,60.5,56.9,30.07,ENE,72,0.0,9.0,88,0.00,,---,0.00,VWS V14.01,2013-02-10 07:36:00,
2013-02-10 02:37:00,60.5,56.9,30.07,ENE,72,1.0,9.0,88,0.00,,---,0.00,VWS V14.01,2013-02-10 07:37:00,
2013-02-10 02:41:00,60.5,56.9,30.07,ENE,65,5.0,9.0,88,0.00,,---,0.00,VWS V14.01,2013-02-10 07:41:00,
2013-02-10 02:42:00,60.5,56.9,30.07,NE,53,5.0,11.0,88,0.00,,---,0.00,VWS V14.01,2013-02-10 07:42:00,
2013-02-10 02:46:00,60.5,56.9,30.07,ENE,64,2.0,11.0,88,0.00,,---,0.00,VWS V14.01,2013-02-10 07:46:00,
2013-02-10 02:47:00,60.5,56.9,30.07,ENE,65,1.0,11.0,88,0.00,,---,0.00,VWS V14.01,2013-02-10 07:47:00,
2013-02-10 02:51:00,60.5,56.9,30.06,ENE,60,1.0,11.0,88,0.00,,---,0.00,VWS V14.01,2013-02-10 07:51:00,
2013-02-10 02:52:00,60.7,57.1,30.06,ENE,69,6.0,11.0,88,0.00,,---,0.00,VWS V14.01,2013-02-10 07:52:00,
2013-02-10 02:56:00,60.7,57.1,30.06,ENE,64,5.0,11.0,88,0.00,,---,0.00,VWS V14.01,2013-02-10 07:56:00,
2013-02-10 02:57:00,60.7,57.1,30.06,NE,54,7.0,11.0,88,0.00,,---,0.00,VWS V14.01,2013-02-10 07:57:00,
2013-02-10 03:00:00,60.7,57.1,30.06,ENE,70,2.0,11.0,88,0.00,,---,0.00,VWS V14.01,2013-02-10 08:00:00,
2013-02-10 03:01:00,60.7,57.1,30.06,ENE,67,5.0,11.0,88,0.00,,---,0.00,VWS V14.01,2013-02-10 08:01:00,
2013-02-10 03:02:00,60.7,57.1,30.06,ENE,67,1.0,11.0,88,0.00,,---,0.00,VWS V14.01,2013-02-10 08:02:00,
2013-02-10 03:06:00,60.7,57.1,30.06,ENE,70,3.0,6.0,88,0.00,,---,0.00,VWS V14.01,2013-02-10 08:06:00,
2013-02-10 03:07:00,60.7,57.1,30.06,ENE,70,1.0,6.0,88,0.00,,---,0.00,VWS V14.01,2013-02-10 08:07:00,
2013-02-10 03:11:00,60.7,57.1,30.06,ENE,70,1.0,8.0,88,0.00,,---,0.00,VWS V14.01,2013-02-10 08:11:00,
2013-02-10 03:12:00,60.7,57.1,30.06,ENE,70,0.0,8.0,88,0.00,,---,0.00,VWS V14.01,2013-02-10 08:12:00,
2013-02-10 03:16:00,60.7,57.1,30.06,ENE,59,4.0,8.0,88,0.00,,---,0.00,VWS V14.01,2013-02-10 08:16:00,
2013-02-10 03:17:00,60.7,57.1,30.06,ENE,59,0.0,8.0,88,0.00,,---,0.00,VWS V14.01,2013-02-10 08:17:00,
2013-02-10 03:21:00,60.7,57.1,30.06,East,81,2.0,8.0,88,0.00,,---,0.00,VWS V14.01,2013-02-10 08:21:00,
2013-02-10 03:22:00,60.7,57.1,30.06,East,81,4.0,8.0,88,0.00,,---,0.00,VWS V14.01,2013-02-10 08:22:00,
2013-02-10 03:26:00,60.7,57.4,30.06,NE,37,3.0,8.0,89,0.00,,---,0.00,VWS V14.01,2013-02-10 08:26:00,
2013-02-10 03:27:00,60.7,57.1,30.06,NE,37,0.0,8.0,88,0.00,,---,0.00,VWS V14.01,2013-02-10 08:27:00,
2013-02-10 03:31:00,60.9,57.3,30.06,NE,39,0.0,8.0,88,0.00,,---,0.00,VWS V14.01,2013-02-10 08:31:00,
2013-02-10 03:32:00,60.9,57.3,30.06,NE,40,0.0,8.0,88,0.00,,---,0.00,VWS V14.01,2013-02-10 08:32:00,
2013-02-10 03:36:00,60.9,57.3,30.07,ENE,70,2.0,8.0,88,0.00,,---,0.00,VWS V14.01,2013-02-10 08:36:00,
2013-02-10 03:37:00,60.9,57.3,30.07,NE,46,6.0,8.0,88,0.00,,---,0.00,VWS V14.01,2013-02-10 08:37:00,
2013-02-10 03:41:00,61.0,57.4,30.07,NE,46,1.0,8.0,88,0.00,,---,0.00,VWS V14.01,2013-02-10 08:41:00,
2013-02-10 03:42:00,60.9,57.3,30.07,NE,46,3.0,8.0,88,0.00,,---,0.00,VWS V14.01,2013-02-10 08:42:00,
2013-02-10 03:46:00,60.9,57.3,30.07,ENE,57,0.0,8.0,88,0.00,,---,0.00,VWS V14.01,2013-02-10 08:46:00,
2013-02-10 03:47:00,60.9,57.3,30.07,NE,56,0.0,8.0,88,0.00,,---,0.00,VWS V14.01,2013-02-10 08:47:00,
2013-02-10 03:51:00,60.9,57.3,30.07,NE,56,5.0,8.0,88,0.00,,---,0.00,VWS V14.01,2013-02-10 08:51:00,
2013-02-10 03:52:00,60.9,57.3,30.07,ENE,57,6.0,8.0,88,0.00,,---,0.00,VWS V14.01,2013-02-10 08:52:00,
2013-02-10 03:57:00,60.9,57.6,30.07,ENE,57,5.0,8.0,89,0.00,,---,0.00,VWS V14.01,2013-02-10 08:57:00,
2013-02-10 04:00:00,60.9,57.6,30.07,ENE,58,0.0,8.0,89,0.00,,---,0.00,VWS V14.01,2013-02-10 09:00:00,
2013-02-10 04:02:00,60.9,57.6,30.07,ENE,58,2.0,8.0,89,0.00,,---,0.00,VWS V14.01,2013-02-10 09:02:00,
2013-02-10 04:03:00,60.9,57.6,30.07,ENE,58,3.0,8.0,89,0.00,,---,0.00,VWS V14.01,2013-02-10 09:03:00,
2013-02-10 04:07:00,60.9,57.6,30.07,ENE,58,0.0,6.0,89,0.00,,---,0.00,VWS V14.01,2013-02-10 09:07:00,
2013-02-10 04:08:00,60.9,57.6,30.07,ENE,58,2.0,6.0,89,0.00,,---,0.00,VWS V14.01,2013-02-10 09:08:00,
2013-02-10 04:12:00,60.7,57.4,30.07,ENE,64,6.0,8.0,89,0.00,,---,0.00,VWS V14.01,2013-02-10 09:12:00,
2013-02-10 04:13:00,60.7,57.4,30.07,ENE,63,3.0,8.0,89,0.00,,---,0.00,VWS V14.01,2013-02-10 09:13:00,
2013-02-10 04:17:00,60.9,57.6,30.07,ENE,63,3.0,8.0,89,0.00,,---,0.00,VWS V14.01,2013-02-10 09:17:00,
2013-02-10 04:18:00,60.9,57.6,30.07,ENE,63,2.0,8.0,89,0.00,,---,0.00,VWS V14.01,2013-02-10 09:18:00,
2013-02-10 04:22:00,60.9,57.6,30.07,ENE,63,0.0,8.0,89,0.00,,---,0.00,VWS V14.01,2013-02-10 09:22:00,
2013-02-10 04:23:00,60.9,57.6,30.07,ENE,66,2.0,8.0,89,0.00,,---,0.00,VWS V14.01,2013-02-10 09:23:00,
2013-02-10 04:27:00,61.0,57.7,30.07,ENE,65,0.0,8.0,89,0.00,,---,0.00,VWS V14.01,2013-02-10 09:27:00,
2013-02-10 04:28:00,61.0,57.7,30.07,ENE,65,7.0,8.0,89,0.00,,---,0.00,VWS V14.01,2013-02-10 09:28:00,
2013-02-10 04:32:00,61.0,57.7,30.07,ENE,65,0.0,8.0,89,0.00,,---,0.00,VWS V14.01,2013-02-10 09:32:00,
2013-02-10 04:33:00,61.0,57.7,30.07,ENE,65,2.0,8.0,89,0.00,,---,0.00,VWS V14.01,2013-02-10 09:33:00,
2013-02-10 04:37:00,61.2,57.9,30.07,ENE,62,0.0,8.0,89,0.00,,---,0.00,VWS V14.01,2013-02-10 09:37:00,
2013-02-10 04:38:00,61.2,57.9,30.07,ENE,62,0.0,8.0,89,0.00,,---,0.00,VWS V14.01,2013-02-10 09:38:00,
2013-02-10 04:42:00,61.2,57.9,30.07,ENE,68,6.0,8.0,89,0.00,,---,0.00,VWS V14.01,2013-02-10 09:42:00,
2013-02-10 04:43:00,61.2,57.9,30.07,ENE,68,0.0,8.0,89,0.00,,---,0.00,VWS V14.01,2013-02-10 09:43:00,
2013-02-10 04:47:00,61.2,57.6,30.07,ENE,68,2.0,8.0,88,0.00,,---,0.00,VWS V14.01,2013-02-10 09:47:00,
2013-02-10 04:48:00,61.2,57.9,30.07,ENE,68,2.0,8.0,89,0.00,,---,0.00,VWS V14.01,2013-02-10 09:48:00,
2013-02-10 04:52:00,61.2,57.9,30.07,ENE,66,4.0,8.0,89,0.00,,---,0.00,VWS V14.01,2013-02-10 09:52:00,
2013-02-10 04:53:00,61.2,57.9,30.07,ENE,75,5.0,8.0,89,0.00,,---,0.00,VWS V14.01,2013-02-10 09:53:00,
2013-02-10 04:57:00,61.2,57.9,30.07,ENE,73,2.0,8.0,89,0.00,,---,0.00,VWS V14.01,2013-02-10 09:57:00,
2013-02-10 04:58:00,61.2,57.9,30.07,ENE,73,5.0,8.0,89,0.00,,---,0.00,VWS V14.01,2013-02-10 09:58:00,
2013-02-10 05:00:00,61.2,57.9,30.08,ENE,64,4.0,8.0,89,0.00,,---,0.00,VWS V14.01,2013-02-10 10:00:00,
2013-02-10 05:02:00,61.2,57.9,30.08,ENE,63,1.0,8.0,89,0.00,,---,0.00,VWS V14.01,2013-02-10 10:02:00,
2013-02-10 05:03:00,61.2,57.9,30.08,ENE,65,7.0,8.0,89,0.00,,---,0.00,VWS V14.01,2013-02-10 10:03:00,
2013-02-10 05:07:00,61.3,58.0,30.08,ENE,64,2.0,5.0,89,0.00,,---,0.00,VWS V14.01,2013-02-10 10:07:00,
2013-02-10 05:08:00,61.3,58.0,30.08,ENE,64,2.0,5.0,89,0.00,,---,0.00,VWS V14.01,2013-02-10 10:08:00,
2013-02-10 05:12:00,61.3,57.7,30.08,ENE,72,2.0,6.0,88,0.00,,---,0.00,VWS V14.01,2013-02-10 10:12:00,
2013-02-10 05:13:00,61.3,57.7,30.08,NE,56,4.0,8.0,88,0.00,,---,0.00,VWS V14.01,2013-02-10 10:13:00,
2013-02-10 05:17:00,61.3,57.7,30.08,ENE,57,0.0,8.0,88,0.00,,---,0.00,VWS V14.01,2013-02-10 10:17:00,
2013-02-10 05:18:00,61.3,57.7,30.08,ENE,57,1.0,8.0,88,0.00,,---,0.00,VWS V14.01,2013-02-10 10:18:00,
2013-02-10 05:22:00,61.3,57.7,30.08,ENE,60,2.0,8.0,88,0.00,,---,0.00,VWS V14.01,2013-02-10 10:22:00,
2013-02-10 05:23:00,61.3,57.7,30.08,ENE,60,3.0,8.0,88,0.00,,---,0.00,VWS V14.01,2013-02-10 10:23:00,
2013-02-10 05:27:00,61.3,57.7,30.08,ENE,76,2.0,8.0,88,0.00,,---,0.00,VWS V14.01,2013-02-10 10:27:00,
2013-02-10 05:28:00,61.3,57.7,30.08,East,89,5.0,8.0,88,0.00,,---,0.00,VWS V14.01,2013-02-10 10:28:00,
2013-02-10 05:33:00,61.3,57.7,30.08,NE,51,5.0,8.0,88,0.00,,---,0.00,VWS V14.01,2013-02-10 10:33:00,
2013-02-10 05:38:00,61.3,57.7,30.08,ENE,75,2.0,9.0,88,0.00,,---,0.00,VWS V14.01,2013-02-10 10:38:00,
2013-02-10 05:43:00,61.5,57.9,30.08,ENE,63,5.0,9.0,88,0.00,,---,0.00,VWS V14.01,2013-02-10 10:43:00,
2013-02-10 05:48:00,61.5,57.9,30.07,NE,55,7.0,9.0,88,0.00,,---,0.00,VWS V14.01,2013-02-10 10:48:00,
2013-02-10 05:53:00,61.5,57.9,30.07,ENE,68,4.0,9.0,88,0.00,,---,0.00,VWS V14.01,2013-02-10 10:53:00,
2013-02-10 05:54:00,61.5,57.9,30.07,ENE,67,4.0,9.0,88,0.00,,---,0.00,VWS V14.01,2013-02-10 10:54:00,
2013-02-10 05:58:00,61.3,57.7,30.07,NE,53,0.0,9.0,88,0.00,,---,0.00,VWS V14.01,2013-02-10 10:58:00,
2013-02-10 05:59:00,61.3,57.7,30.07,ENE,58,7.0,9.0,88,0.00,,---,0.00,VWS V14.01,2013-02-10 10:59:00,
2013-02-10 06:00:00,61.3,57.7,30.08,ENE,68,5.0,9.0,88,0.00,,---,0.00,VWS V14.01,2013-02-10 11:00:00,
2013-02-10 06:03:00,61.3,57.7,30.08,ENE,68,5.0,9.0,88,0.00,,---,0.00,VWS V14.01,2013-02-10 11:03:00,
2013-02-10 06:04:00,61.3,57.7,30.08,ENE,64,3.0,4.0,88,0.00,,---,0.00,VWS V14.01,2013-02-10 11:04:00,
2013-02-10 06:08:00,61.3,57.7,30.08,ENE,74,5.0,7.0,88,0.00,,---,0.00,VWS V14.01,2013-02-10 11:08:00,
2013-02-10 06:09:00,61.3,57.7,30.08,East,84,2.0,7.0,88,0.00,,---,0.00,VWS V14.01,2013-02-10 11:09:00,
2013-02-10 06:13:00,61.3,57.7,30.08,East,94,4.0,7.0,88,0.00,,---,0.00,VWS V14.01,2013-02-10 11:13:00,
2013-02-10 06:14:00,61.3,57.7,30.08,East,92,1.0,7.0,88,0.00,,---,0.00,VWS V14.01,2013-02-10 11:14:00,
2013-02-10 06:18:00,61.3,57.7,30.08,NE,54,3.0,7.0,88,0.00,,---,0.00,VWS V14.01,2013-02-10 11:18:00,
2013-02-10 06:19:00,61.3,57.7,30.08,NE,54,0.0,7.0,88,0.00,,---,0.00,VWS V14.01,2013-02-10 11:19:00,
2013-02-10 06:23:00,61.2,57.6,30.08,ENE,76,4.0,7.0,88,0.00,,---,0.00,VWS V14.01,2013-02-10 11:23:00,
2013-02-10 06:24:00,61.2,57.6,30.08,ENE,75,2.0,7.0,88,0.00,,---,0.00,VWS V14.01,2013-02-10 11:24:00,
2013-02-10 06:28:00,61.2,57.6,30.08,ENE,75,2.0,7.0,88,0.00,,---,0.00,VWS V14.01,2013-02-10 11:28:00,
2013-02-10 06:29:00,61.2,57.6,30.08,ENE,75,2.0,7.0,88,0.00,,---,0.00,VWS V14.01,2013-02-10 11:29:00,
2013-02-10 06:33:00,61.0,57.4,30.08,ENE,75,0.0,7.0,88,0.00,,---,0.00,VWS V14.01,2013-02-10 11:33:00,
2013-02-10 06:34:00,61.0,57.4,30.08,ENE,75,0.0,7.0,88,0.00,,---,0.00,VWS V14.01,2013-02-10 11:34:00,
2013-02-10 06:38:00,61.0,57.4,30.08,ENE,75,0.0,7.0,88,0.00,,---,0.00,VWS V14.01,2013-02-10 11:38:00,
2013-02-10 06:39:00,61.0,57.4,30.08,ENE,75,0.0,7.0,88,0.00,,---,0.00,VWS V14.01,2013-02-10 11:39:00,
2013-02-10 06:43:00,60.9,57.6,30.08,ENE,76,1.0,7.0,89,0.00,,---,0.00,VWS V14.01,2013-02-10 11:43:00,
2013-02-10 06:44:00,60.9,57.6,30.08,ENE,76,0.0,7.0,89,0.00,,---,0.00,VWS V14.01,2013-02-10 11:44:00,
2013-02-10 06:48:00,60.9,57.6,30.09,ENE,76,0.0,7.0,89,0.00,,---,0.00,VWS V14.01,2013-02-10 11:48:00,
2013-02-10 06:49:00,60.9,57.6,30.09,ENE,76,0.0,7.0,89,0.00,,---,0.00,VWS V14.01,2013-02-10 11:49:00,
2013-02-10 06:53:00,60.7,57.4,30.09,ENE,76,0.0,7.0,89,0.00,,---,0.00,VWS V14.01,2013-02-10 11:53:00,
2013-02-10 06:54:00,60.7,57.4,30.09,ENE,76,0.0,7.0,89,0.00,,---,0.00,VWS V14.01,2013-02-10 11:54:00,
2013-02-10 06:58:00,60.7,57.4,30.09,ENE,76,2.0,7.0,89,0.00,,---,0.00,VWS V14.01,2013-02-10 11:58:00,
2013-02-10 06:59:00,60.7,57.4,30.09,ENE,76,0.0,7.0,89,0.00,,---,0.00,VWS V14.01,2013-02-10 11:59:00,
2013-02-10 07:00:00,60.7,57.4,30.10,ENE,76,0.0,7.0,89,0.00,,---,0.00,VWS V14.01,2013-02-10 12:00:00,
2013-02-10 07:03:00,60.7,57.4,30.10,ENE,76,3.0,3.0,89,0.00,,---,0.00,VWS V14.01,2013-02-10 12:03:00,
2013-02-10 07:04:00,60.7,57.4,30.10,ENE,76,1.0,4.0,89,0.00,,---,0.00,VWS V14.01,2013-02-10 12:04:00,
2013-02-10 07:08:00,60.9,57.6,30.10,ENE,75,4.0,5.0,89,0.00,,---,0.00,VWS V14.01,2013-02-10 12:08:00,
2013-02-10 07:09:00,60.9,57.6,30.10,ENE,75,2.0,5.0,89,0.00,,---,0.00,VWS V14.01,2013-02-10 12:09:00,
2013-02-10 07:13:00,60.9,57.6,30.10,ENE,75,0.0,5.0,89,0.00,,---,0.00,VWS V14.01,2013-02-10 12:13:00,
2013-02-10 07:14:00,60.9,57.6,30.10,ENE,75,0.0,5.0,89,0.00,,---,0.00,VWS V14.01,2013-02-10 12:14:00,
2013-02-10 07:19:00,61.0,57.7,30.11,ENE,62,8.0,8.0,89,0.00,,---,0.00,VWS V14.01,2013-02-10 12:19:00,
2013-02-10 07:24:00,61.2,57.6,30.11,NE,53,5.0,9.0,88,0.00,,---,0.00,VWS V14.01,2013-02-10 12:24:00,
2013-02-10 07:29:00,61.3,57.7,30.11,ENE,57,0.0,9.0,88,0.00,,---,0.00,VWS V14.01,2013-02-10 12:29:00,
2013-02-10 07:30:00,61.3,57.7,30.11,ENE,57,5.0,9.0,88,0.00,,---,0.00,VWS V14.01,2013-02-10 12:30:00,
2013-02-10 07:34:00,61.5,57.9,30.11,ENE,59,2.0,9.0,88,0.00,,---,0.00,VWS V14.01,2013-02-10 12:34:00,
2013-02-10 07:35:00,61.5,57.6,30.11,ENE,60,3.0,9.0,87,0.00,,---,0.00,VWS V14.01,2013-02-10 12:35:00,
2013-02-10 07:39:00,61.6,57.7,30.11,ENE,59,0.0,9.0,87,0.00,,---,0.00,VWS V14.01,2013-02-10 12:39:00,
2013-02-10 07:40:00,61.6,57.7,30.11,ENE,59,0.0,9.0,87,0.00,,---,0.00,VWS V14.01,2013-02-10 12:40:00,
2013-02-10 07:44:00,61.8,57.9,30.11,NE,56,5.0,9.0,87,0.00,,---,0.00,VWS V14.01,2013-02-10 12:44:00,
2013-02-10 07:45:00,61.8,57.9,30.11,NE,55,1.0,9.0,87,0.00,,---,0.00,VWS V14.01,2013-02-10 12:45:00,
2013-02-10 07:49:00,61.8,57.6,30.12,ENE,58,0.0,9.0,86,0.00,,---,0.00,VWS V14.01,2013-02-10 12:49:00,
2013-02-10 07:50:00,61.8,57.6,30.12,ENE,58,1.0,9.0,86,0.00,,---,0.00,VWS V14.01,2013-02-10 12:50:00,
2013-02-10 07:54:00,61.8,57.6,30.12,ENE,58,0.0,9.0,86,0.00,,---,0.00,VWS V14.01,2013-02-10 12:54:00,
2013-02-10 07:55:00,61.8,57.6,30.12,ENE,58,0.0,9.0,86,0.00,,---,0.00,VWS V14.01,2013-02-10 12:55:00,
2013-02-10 07:59:00,61.8,57.9,30.12,ENE,58,4.0,9.0,87,0.00,,---,0.00,VWS V14.01,2013-02-10 12:59:00,
2013-02-10 08:00:00,61.8,57.6,30.12,ENE,58,4.0,9.0,86,0.00,,---,0.00,VWS V14.01,2013-02-10 13:00:00,
2013-02-10 08:04:00,62.1,57.9,30.12,ENE,58,0.0,1.0,86,0.00,,---,0.00,VWS V14.01,2013-02-10 13:04:00,
2013-02-10 08:05:00,62.1,57.9,30.12,ENE,60,4.0,5.0,86,0.00,,---,0.00,VWS V14.01,2013-02-10 13:05:00,
2013-02-10 08:09:00,62.3,57.7,30.12,ENE,60,0.0,7.0,85,0.00,,---,0.00,VWS V14.01,2013-02-10 13:09:00,
2013-02-10 08:10:00,62.4,57.8,30.12,ENE,60,0.0,7.0,85,0.00,,---,0.00,VWS V14.01,2013-02-10 13:10:00,
2013-02-10 08:14:00,62.6,58.0,30.12,ENE,64,5.0,7.0,85,0.00,,---,0.00,VWS V14.01,2013-02-10 13:14:00,
2013-02-10 08:15:00,62.7,58.1,30.12,ENE,63,6.0,7.0,85,0.00,,---,0.00,VWS V14.01,2013-02-10 13:15:00,
2013-02-10 08:19:00,63.2,58.3,30.12,East,91,5.0,8.0,84,0.00,,---,0.00,VWS V14.01,2013-02-10 13:19:00,
2013-02-10 08:20:00,63.2,58.3,30.12,East,90,0.0,8.0,84,0.00,,---,0.00,VWS V14.01,2013-02-10 13:20:00,
2013-02-10 08:24:00,63.5,58.2,30.12,ESE,104,0.0,9.0,83,0.00,,---,0.00,VWS V14.01,2013-02-10 13:24:00,
2013-02-10 08:25:00,63.7,58.5,30.12,ENE,67,1.0,9.0,83,0.00,,---,0.00,VWS V14.01,2013-02-10 13:25:00,
2013-02-10 08:29:00,64.2,58.6,30.12,ENE,61,5.0,12.0,82,0.00,,---,0.00,VWS V14.01,2013-02-10 13:29:00,
2013-02-10 08:30:00,64.3,58.3,30.12,East,82,2.0,12.0,81,0.00,,---,0.00,VWS V14.01,2013-02-10 13:30:00,
2013-02-10 08:34:00,64.7,58.7,30.12,ESE,121,4.0,12.0,81,0.00,,---,0.00,VWS V14.01,2013-02-10 13:34:00,
2013-02-10 08:35:00,64.7,58.4,30.12,NE,54,7.0,12.0,80,0.00,,---,0.00,VWS V14.01,2013-02-10 13:35:00,
2013-02-10 08:39:00,65.0,58.7,30.12,ENE,71,6.0,12.0,80,0.00,,---,0.00,VWS V14.01,2013-02-10 13:39:00,
2013-02-10 08:40:00,65.0,58.7,30.12,ENE,71,6.0,12.0,80,0.00,,---,0.00,VWS V14.01,2013-02-10 13:40:00,
2013-02-10 08:44:00,65.5,58.5,30.12,East,89,5.0,12.0,78,0.00,,---,0.00,VWS V14.01,2013-02-10 13:44:00,
2013-02-10 08:45:00,65.5,58.5,30.12,East,83,1.0,12.0,78,0.00,,---,0.00,VWS V14.01,2013-02-10 13:45:00,
2013-02-10 08:49:00,65.6,58.6,30.13,East,81,8.0,15.0,78,0.00,,---,0.00,VWS V14.01,2013-02-10 13:49:00,
2013-02-10 08:50:00,65.6,58.6,30.13,East,89,4.0,15.0,78,0.00,,---,0.00,VWS V14.01,2013-02-10 13:50:00,
2013-02-10 08:54:00,66.0,59.0,30.13,East,86,6.0,15.0,78,0.00,,---,0.00,VWS V14.01,2013-02-10 13:54:00,
2013-02-10 08:55:00,66.1,59.0,30.13,East,89,4.0,15.0,78,0.00,,---,0.00,VWS V14.01,2013-02-10 13:55:00,
2013-02-10 08:59:00,66.4,59.0,30.13,East,82,13.0,15.0,77,0.00,,---,0.00,VWS V14.01,2013-02-10 13:59:00,
2013-02-10 09:00:00,66.4,59.0,30.13,East,82,6.0,15.0,77,0.00,,---,0.00,VWS V14.01,2013-02-10 14:00:00,
2013-02-10 09:04:00,66.9,59.1,30.13,East,91,7.0,7.0,76,0.00,,---,0.00,VWS V14.01,2013-02-10 14:04:00,
2013-02-10 09:05:00,66.9,59.1,30.13,ESE,103,7.0,8.0,76,0.00,,---,0.00,VWS V14.01,2013-02-10 14:05:00,
2013-02-10 09:09:00,67.3,59.1,30.13,ENE,57,8.0,11.0,75,0.00,,---,0.00,VWS V14.01,2013-02-10 14:09:00,
2013-02-10 09:10:00,67.3,59.1,30.13,East,82,9.0,11.0,75,0.00,,---,0.00,VWS V14.01,2013-02-10 14:10:00,
2013-02-10 09:14:00,67.9,59.3,30.13,NE,46,6.0,11.0,74,0.00,,---,0.00,VWS V14.01,2013-02-10 14:14:00,
2013-02-10 09:15:00,67.9,59.3,30.13,NE,53,9.0,11.0,74,0.00,,---,0.00,VWS V14.01,2013-02-10 14:15:00,
2013-02-10 09:16:00,67.9,58.9,30.13,NE,49,2.0,11.0,73,0.00,,---,0.00,VWS V14.01,2013-02-10 14:16:00,
2013-02-10 09:19:00,68.3,59.7,30.14,East,80,2.0,11.0,74,0.00,,---,0.00,VWS V14.01,2013-02-10 14:19:00,
2013-02-10 09:20:00,68.4,59.8,30.14,East,81,0.0,11.0,74,0.00,,---,0.00,VWS V14.01,2013-02-10 14:20:00,
2013-02-10 09:21:00,68.6,59.6,30.14,ENE,72,6.0,11.0,73,0.00,,---,0.00,VWS V14.01,2013-02-10 14:21:00,
2013-02-10 09:24:00,68.9,59.5,30.14,NE,41,0.0,11.0,72,0.00,,---,0.00,VWS V14.01,2013-02-10 14:24:00,
2013-02-10 10:00:00,71.6,60.5,30.15,East,90,6.0,19.0,68,0.00,,---,0.00,VWS V14.01,2013-02-10 15:00:00,
2013-02-10 11:00:00,75.6,60.8,30.15,East,90,6.0,20.0,60,0.00,,---,0.00,VWS V14.01,2013-02-10 16:00:00,
2013-02-10 12:00:00,77.4,60.5,30.13,East,90,7.0,20.0,56,0.00,,---,0.00,VWS V14.01,2013-02-10 17:00:00,
2013-02-10 13:00:00,77.9,60.5,30.10,East,90,6.0,20.0,55,0.00,,---,0.00,VWS V14.01,2013-02-10 18:00:00,
2013-02-10 14:00:00,80.3,59.4,30.07,East,90,5.0,18.0,49,0.00,,---,0.00,VWS V14.01,2013-02-10 19:00:00,
2013-02-10 15:00:00,81.6,57.6,30.05,East,90,5.0,15.0,44,0.00,,---,0.00,VWS V14.01,2013-02-10 20:00:00,
2013-02-10 16:00:00,82.0,56.7,30.05,East,90,5.0,16.0,42,0.00,,---,0.00,VWS V14.01,2013-02-10 21:00:00,
2013-02-10 17:00:00,78.3,59.2,30.05,East,90,5.0,16.0,52,0.00,,---,0.00,VWS V14.01,2013-02-10 22:00:00,
2013-02-10 18:00:00,76.0,59.7,30.06,East,90,3.0,11.0,57,0.00,,---,0.00,VWS V14.01,2013-02-10 23:00:00,
2013-02-10 19:00:00,73.3,59.5,30.08,ESE,112,2.0,8.0,62,0.00,,---,0.00,VWS V14.01,2013-02-11 00:00:00,
2013-02-10 20:00:00,70.8,59.7,30.09,East,90,1.0,8.0,68,0.00,,---,0.00,VWS V14.01,2013-02-11 01:00:00,
2013-02-10 21:00:00,68.9,59.5,30.10,East,90,2.0,12.0,72,0.00,,---,0.00,VWS V14.01,2013-02-11 02:00:00,
2013-02-10 22:00:00,67.4,59.6,30.11,East,90,2.0,9.0,76,0.00,,---,0.00,VWS V14.01,2013-02-11 03:00:00,
2013-02-10 23:00:00,65.6,59.3,30.10,East,90,1.0,9.0,80,0.00,,---,0.00,VWS V14.01,2013-02-11 04:00:00,